Tracking 29892 objects as of 21-Nov-2024
HD Live streaming from Space Station
objects crossing your sky now

SL-8 DEB

Track SL-8 DEB now!
10-day predictions


NORAD ID: 1591
Int'l Code: 1965-073H
Perigee: 1,384.2 km
Apogee: 1,619.6 km
Inclination: 56.1 °
Period: 115.9 minutes
Semi major axis: 7872 km
RCS: 0.0613 m2 (small)
Launch date: September 18, 1965
Source: Commonwealth of Independent States (former USSR) (CIS)
Launch site: TYURATAM MISSILE AND SPACE COMPLEX (TTMTR)

Note: This is SATELLITE DEBRIS
Your satellite tracking list
Your tracking list is empty




NASA's NSSDC Master Catalog

Two Line Element Set (TLE):
1 01591U 65073H   24325.79182844 -.00000317  00000-0 -15542-2 0  9998
2 01591  56.0582 236.5550 0149472 288.2599 103.2571 12.42797008677436
Source of the keplerian elements: AFSPC